DLH4PH EDDF-EGLL

Flight info

Callsign DLH4PH
Flight time N/A
Altitude 40000
Route OBOKA3W/25C OBOKA Z29 TORNU DCT ABNED L980 LOGAN
Aircraft A343/H-SDE2E3FGHIJ4J5M1RWXY/LB1D1

Departure

Time N/A
Airport Frankfurt Main Airport (EDDF)

Arrival

Time 2026-05-03 20:36
Airport London Heathrow Airport (EGLL)
Time Latitude Longitude Altitude Speed Heading
2026-05-03 20:15 51.75522 1.73459 26374 ft 401 kts 261°
2026-05-03 20:15 51.75243 1.68980 25808 ft 399 kts 261°
2026-05-03 20:15 51.74963 1.64528 25275 ft 396 kts 261°
2026-05-03 20:15 51.74686 1.60125 24760 ft 393 kts 261°
2026-05-03 20:16 51.74411 1.55732 24241 ft 391 kts 261°
2026-05-03 20:16 51.74132 1.51381 23726 ft 388 kts 262°
2026-05-03 20:16 51.73856 1.47114 23190 ft 386 kts 262°
2026-05-03 20:16 51.73575 1.42770 22623 ft 383 kts 261°
2026-05-03 20:17 51.73303 1.38578 22094 ft 379 kts 261°
2026-05-03 20:17 51.73026 1.34355 21514 ft 377 kts 261°
2026-05-03 20:17 51.72751 1.30164 20950 ft 375 kts 261°
2026-05-03 20:17 51.72474 1.25977 20402 ft 373 kts 261°
2026-05-03 20:18 51.72198 1.21831 19853 ft 371 kts 261°
2026-05-03 20:18 51.71923 1.17710 19330 ft 369 kts 261°
2026-05-03 20:18 51.71647 1.13613 18813 ft 367 kts 261°
2026-05-03 20:18 51.71372 1.09532 18304 ft 365 kts 261°
2026-05-03 20:19 51.71096 1.05474 17741 ft 363 kts 261°
2026-05-03 20:19 51.70822 1.01445 17208 ft 360 kts 262°
2026-05-03 20:19 51.70547 0.97441 16694 ft 357 kts 262°
2026-05-03 20:19 51.70276 0.93472 16186 ft 355 kts 262°
2026-05-03 20:20 51.70005 0.89520 15924 ft 353 kts 262°
2026-05-03 20:20 51.69733 0.85638 15885 ft 353 kts 262°
2026-05-03 20:20 51.69458 0.81725 15764 ft 350 kts 262°
2026-05-03 20:20 51.69182 0.77819 15349 ft 351 kts 262°
2026-05-03 20:21 51.68906 0.73916 14898 ft 350 kts 262°
2026-05-03 20:21 51.68630 0.70035 14462 ft 345 kts 262°
2026-05-03 20:21 51.68367 0.66284 14023 ft 327 kts 262°
2026-05-03 20:21 51.68117 0.62732 13578 ft 311 kts 261°
2026-05-03 20:22 51.67872 0.59346 13094 ft 298 kts 261°
2026-05-03 20:22 51.67634 0.56068 12616 ft 294 kts 261°
2026-05-03 20:22 51.67393 0.52779 12155 ft 297 kts 261°
2026-05-03 20:22 51.67149 0.49458 11697 ft 299 kts 262°
2026-05-03 20:23 51.66909 0.46130 11370 ft 296 kts 262°
2026-05-03 20:23 51.66672 0.42881 11082 ft 289 kts 262°
2026-05-03 20:23 51.66434 0.39676 10703 ft 287 kts 262°
2026-05-03 20:23 51.66197 0.36492 10308 ft 285 kts 262°
2026-05-03 20:24 51.65962 0.33336 9992 ft 281 kts 262°
2026-05-03 20:24 51.65733 0.30264 9809 ft 271 kts 262°
2026-05-03 20:24 51.65512 0.27298 9632 ft 262 kts 262°
2026-05-03 20:24 51.65294 0.24387 9183 ft 264 kts 262°
2026-05-03 20:25 51.65073 0.21468 8619 ft 269 kts 262°
2026-05-03 20:25 51.64844 0.18445 8074 ft 274 kts 262°
2026-05-03 20:25 51.64644 0.15374 7511 ft 277 kts 266°
2026-05-03 20:25 51.64655 0.12256 7002 ft 280 kts 269°
2026-05-03 20:26 51.64328 0.09192 6446 ft 279 kts 246°
2026-05-03 20:26 51.63203 0.06681 5903 ft 279 kts 219°
2026-05-03 20:26 51.61503 0.05250 5335 ft 278 kts 194°
2026-05-03 20:26 51.59648 0.04583 4826 ft 267 kts 195°
2026-05-03 20:27 51.57917 0.03669 4358 ft 257 kts 200°
2026-05-03 20:27 51.56277 0.02681 3934 ft 247 kts 201°
2026-05-03 20:27 51.54699 0.01726 3520 ft 238 kts 201°
2026-05-03 20:27 51.53284 0.00467 3151 ft 228 kts 216°
2026-05-03 20:28 51.51948 -0.00691 2998 ft 209 kts 197°
2026-05-03 20:28 51.50643 -0.01373 2976 ft 187 kts 208°
2026-05-03 20:28 51.49636 -0.02490 3020 ft 168 kts 219°
2026-05-03 20:28 51.48741 -0.03684 3003 ft 167 kts 220°
2026-05-03 20:29 51.48062 -0.05150 2997 ft 167 kts 255°
2026-05-03 20:29 51.47928 -0.06924 2987 ft 154 kts 268°
2026-05-03 20:29 51.47908 -0.08557 2976 ft 145 kts 269°
2026-05-03 20:29 51.47906 -0.10172 3000 ft 145 kts 270°
2026-05-03 20:30 51.47901 -0.11794 2994 ft 146 kts 269°
2026-05-03 20:30 51.47891 -0.13368 2978 ft 137 kts 269°
2026-05-03 20:30 51.47878 -0.14879 2970 ft 134 kts 269°
2026-05-03 20:30 51.47866 -0.16379 2969 ft 134 kts 269°
2026-05-03 20:31 51.47855 -0.17876 2971 ft 134 kts 269°
2026-05-03 20:31 51.47847 -0.19377 2967 ft 135 kts 269°
2026-05-03 20:31 51.47843 -0.20891 2854 ft 136 kts 270°
2026-05-03 20:31 51.47840 -0.22399 2661 ft 134 kts 269°
2026-05-03 20:32 51.47835 -0.23882 2480 ft 132 kts 269°
2026-05-03 20:32 51.47829 -0.25352 2298 ft 131 kts 270°
2026-05-03 20:32 51.47824 -0.26802 2123 ft 130 kts 270°
2026-05-03 20:32 51.47819 -0.28244 1969 ft 129 kts 269°
2026-05-03 20:33 51.47814 -0.29677 1799 ft 128 kts 269°
2026-05-03 20:33 51.47810 -0.31108 1625 ft 128 kts 269°
2026-05-03 20:33 51.47809 -0.32509 1466 ft 127 kts 269°
2026-05-03 20:33 51.47811 -0.33935 1285 ft 127 kts 269°
2026-05-03 20:34 51.47789 -0.35351 1097 ft 127 kts 266°
2026-05-03 20:34 51.47784 -0.36761 932 ft 126 kts 269°
2026-05-03 20:34 51.47794 -0.38166 785 ft 126 kts 269°
2026-05-03 20:34 51.47788 -0.39584 595 ft 128 kts 268°
2026-05-03 20:35 51.47775 -0.41000 411 ft 126 kts 268°
2026-05-03 20:35 51.47771 -0.42400 247 ft 126 kts 268°
2026-05-03 20:35 51.47766 -0.43802 104 ft 124 kts 268°
2026-05-03 20:35 51.47761 -0.45004 96 ft 84 kts 270°
2026-05-03 20:36 51.47759 -0.45640 92 ft 29 kts 270°
2026-05-03 20:36 51.47702 -0.45894 95 ft 21 kts 227°
2026-05-03 20:36 51.47637 -0.45987 95 ft 4 kts 219°
2026-05-03 20:36 51.47623 -0.45994 95 ft 1 kts 189°
2026-05-03 20:37 51.47595 -0.46009 96 ft 4 kts 212°
2026-05-03 20:37 51.47564 -0.46052 96 ft 7 kts 217°
2026-05-03 20:37 51.47525 -0.46052 93 ft 5 kts 139°
2026-05-03 20:37 51.47515 -0.45985 94 ft 8 kts 90°
2026-05-03 20:38 51.47518 -0.45878 91 ft 11 kts 88°
2026-05-03 20:38 51.47514 -0.45747 92 ft 13 kts 97°
2026-05-03 20:38 51.47508 -0.45593 94 ft 15 kts 90°
2026-05-03 20:38 51.47509 -0.45417 94 ft 17 kts 89°
2026-05-03 20:39 51.47511 -0.45220 95 ft 19 kts 89°
2026-05-03 20:39 51.47511 -0.45012 94 ft 15 kts 91°
2026-05-03 20:39 51.47510 -0.44869 94 ft 11 kts 90°
2026-05-03 20:39 51.47510 -0.44734 95 ft 13 kts 90°
2026-05-03 20:40 51.47491 -0.44586 96 ft 14 kts 130°
2026-05-03 20:40 51.47395 -0.44558 92 ft 15 kts 181°
2026-05-03 20:40 51.47284 -0.44559 91 ft 17 kts 180°
2026-05-03 20:40 51.47166 -0.44558 91 ft 16 kts 179°
2026-05-03 20:41 51.47071 -0.44558 91 ft 13 kts 180°
2026-05-03 20:41 51.46982 -0.44557 94 ft 10 kts 179°
2026-05-03 20:41 51.46940 -0.44590 94 ft 6 kts 248°
2026-05-03 20:41 51.46937 -0.44662 94 ft 6 kts 269°
2026-05-03 20:42 51.46936 -0.44691 94 ft 2 kts 269°
2026-05-03 20:42 51.46936 -0.44701 94 ft 0 kts 270°